Jacksonville, IL

12:20 PM CDT on August 20, 2017 (GMT -0500)
Jacksonville Municipal

Weather History for KIJX - January, 2013

Change the Weather History Date:

Friday, January 25, 2013

  Actual Average (KSPI) Record (KSPI)
Temperature  
Mean Temperature 34 °F -  
Max Temperature 41 °F 35 °F 70 °F (1950)
Min Temperature 27 °F 18 °F -17 °F (1894)
Degree Days  
Heating Degree Days 31    
Moisture  
Dew Point 17 °F    
Average Humidity 54    
Maximum Humidity 73    
Minimum Humidity 40    
Precipitation  
Precipitation 0.00 in - - ()
Sea Level Pressure  
Sea Level Pressure 30.15 in    
Wind  
Wind Speed 9 mph (SW)    
Max Wind Speed 17 mph    
Max Gust Speed 22 mph    
Visibility 10 miles    
Events      
Averages and records for this station are not official NWS values.
T = Trace of Precipitation, MM = Missing Value Source: NWS Daily Summary

Daily Weather History Graph

Daily Weather History Graph

Search for Another Location

Airport or City:

Trip Planner

Search our weather history database for the weather conditions in past years. The results will help you decide how hot, cold, wet, or windy it might be!

Date:

Astronomy

Jan. 25, 2013 Rise Set
Actual Time 7:14 AM CST 5:12 PM CST
Civil Twilight 6:45 AM CST 5:41 PM CST
Nautical Twilight 6:12 AM CST 6:14 PM CST
Astronomical Twilight 5:40 AM CST 6:46 PM CST
Moon 4:09 PM CST (1/25) 5:54 AM CST (1/25)
Length of Visible Light 10h 55m
Length of Day
9h 58m
Waxing Gibbous, 98% of the Moon is Illuminated
Jan 25
Waxing Gibbous
Jan 26
Full
Feb 3
Last Quarter
Feb 10
New
Feb 17
First Quarter

Hourly Weather History & Observations

Time (CST) Temp. Windchill Dew Point Humidity Pressure Visibility Wind Dir Wind Speed Gust Speed Precip Events Conditions
12:15 AM 27.0 °F 16.7 °F 11.7 °F 53% 30.26 in 10.0 mi ESE 11.5 mph - N/A   Overcast
12:35 AM 27.0 °F 15.2 °F 12.0 °F 53% 30.23 in 10.0 mi SE 15.0 mph - N/A   Overcast
12:55 AM 27.0 °F 16.7 °F 12.2 °F 54% 30.22 in 10.0 mi ESE 11.5 mph - N/A   Overcast
1:15 AM 27.1 °F 19.7 °F 11.8 °F 53% 30.24 in 10.0 mi ESE 6.9 mph - N/A   Overcast
1:35 AM 27.3 °F 19.1 °F 11.7 °F 52% 30.23 in 10.0 mi ESE 8.1 mph - N/A   Overcast
1:55 AM 27.3 °F 19.1 °F 11.5 °F 51% 30.21 in 10.0 mi ESE 8.1 mph - N/A   Overcast
2:15 AM 27.5 °F 19.3 °F 11.7 °F 51% 30.21 in 10.0 mi ESE 8.1 mph - N/A   Overcast
2:35 AM 27.5 °F 21.1 °F 11.7 °F 51% 30.20 in 10.0 mi SE 5.8 mph - N/A   Overcast
2:55 AM 27.5 °F 21.1 °F 11.3 °F 51% 30.20 in 10.0 mi SSE 5.8 mph - N/A   Overcast
3:15 AM 27.5 °F 19.3 °F 11.8 °F 52% 30.18 in 10.0 mi SSE 8.1 mph - N/A   Overcast
3:35 AM 27.5 °F 22.2 °F 11.3 °F 51% 30.17 in 10.0 mi SSE 4.6 mph - N/A   Overcast
3:55 AM 27.5 °F 22.2 °F 11.5 °F 51% 30.19 in 10.0 mi SSW 4.6 mph - N/A   Overcast
4:15 AM 27.5 °F - 12.0 °F 52% 30.19 in 10.0 mi Calm Calm - N/A   Overcast
4:35 AM 27.3 °F - 12.9 °F 55% 30.18 in 10.0 mi Calm Calm - N/A   Overcast
4:55 AM 27.1 °F 23.2 °F 12.9 °F 55% 30.16 in 10.0 mi SSE 3.5 mph - N/A   Overcast
5:15 AM 27.5 °F 22.2 °F 13.1 °F 55% 30.15 in 10.0 mi SSE 4.6 mph - N/A   Overcast
5:35 AM 27.5 °F 23.6 °F 12.9 °F 54% 30.14 in 10.0 mi South 3.5 mph - N/A   Overcast
5:55 AM 27.5 °F 21.1 °F 12.9 °F 54% 30.14 in 10.0 mi South 5.8 mph - N/A   Overcast
6:15 AM 27.5 °F 23.6 °F 12.7 °F 54% 30.15 in 10.0 mi South 3.5 mph - N/A   Overcast
6:35 AM 27.5 °F 23.6 °F 12.9 °F 54% 30.15 in 10.0 mi South 3.5 mph - N/A   Overcast
6:55 AM 27.5 °F - 13.6 °F 56% 30.15 in 10.0 mi Calm Calm - N/A   Overcast
7:15 AM 27.5 °F 23.6 °F 14.0 °F 57% 30.15 in 10.0 mi SSW 3.5 mph - N/A   Overcast
7:35 AM 27.9 °F 24.0 °F 14.0 °F 56% 30.15 in 10.0 mi SSW 3.5 mph - N/A   Overcast
7:55 AM 28.0 °F 22.8 °F 14.5 °F 57% 30.14 in 10.0 mi SSW 4.6 mph - N/A   Overcast
8:15 AM 28.4 °F 21.2 °F 14.7 °F 57% 30.14 in 10.0 mi SSW 6.9 mph - N/A   Overcast
8:35 AM 28.9 °F 21.1 °F 14.9 °F 56% 30.15 in 10.0 mi SW 8.1 mph - N/A   Overcast
8:55 AM 29.3 °F 20.2 °F 14.9 °F 55% 30.15 in 10.0 mi SW 10.4 mph - N/A   Overcast
9:15 AM 30.2 °F 21.3 °F 14.9 °F 53% 30.15 in 10.0 mi SW 10.4 mph - N/A   Overcast
9:35 AM 30.7 °F 22.6 °F 15.4 °F 53% 30.15 in 10.0 mi WSW 9.2 mph - N/A   Overcast
9:55 AM 31.8 °F 23.3 °F 15.6 °F 51% 30.15 in 10.0 mi West 10.4 mph - N/A   Overcast
10:15 AM 32.0 °F 21.2 °F 16.7 °F 53% 30.15 in 10.0 mi West 16.1 mph - N/A   Overcast
10:35 AM 32.0 °F 22.5 °F 17.6 °F 55% 30.15 in 10.0 mi West 12.7 mph - N/A   Overcast
10:55 AM 32.9 °F 23.7 °F 17.6 °F 53% 30.15 in 10.0 mi West 12.7 mph - N/A   Overcast
11:15 AM 33.3 °F 25.1 °F 17.8 °F 53% 30.13 in 10.0 mi West 10.4 mph - N/A   Overcast
11:35 AM 34.7 °F 26.9 °F 18.5 °F 52% 30.13 in 10.0 mi West 10.4 mph 16.1 mph N/A   Scattered Clouds
11:55 AM 35.1 °F 26.9 °F 18.3 °F 51% 30.12 in 10.0 mi WSW 11.5 mph - N/A   Clear
12:15 PM 36.0 °F 27.5 °F 18.7 °F 50% 30.12 in 10.0 mi West 12.7 mph 18.4 mph N/A   Clear
12:35 PM 37.2 °F 29.6 °F 18.9 °F 48% 30.10 in 10.0 mi West 11.5 mph 16.1 mph N/A   Clear
12:55 PM 37.4 °F 30.3 °F 19.4 °F 48% 30.10 in 10.0 mi SW 10.4 mph - N/A   Clear
1:15 PM 38.7 °F 30.5 °F 18.3 °F 44% 30.10 in 10.0 mi WSW 13.8 mph 20.7 mph N/A   Clear
1:35 PM 39.6 °F 31.3 °F 18.5 °F 43% 30.09 in 10.0 mi West 15.0 mph 18.4 mph N/A   Clear
1:55 PM 40.1 °F 32.0 °F 18.7 °F 42% 30.09 in 10.0 mi WSW 15.0 mph 19.6 mph N/A   Clear
2:15 PM 40.8 °F 33.3 °F 19.2 °F 42% 30.08 in 10.0 mi WSW 13.8 mph - N/A   Clear
2:35 PM 40.8 °F 32.3 °F 19.0 °F 42% 30.08 in 10.0 mi WSW 17.3 mph 21.9 mph N/A   Clear
2:55 PM 41.4 °F 34.0 °F 19.4 °F 41% 30.08 in 10.0 mi WSW 13.8 mph - N/A   Clear
3:15 PM 41.5 °F 34.6 °F 19.2 °F 41% 30.08 in 10.0 mi WSW 12.7 mph - N/A   Clear
3:35 PM 41.9 °F 34.6 °F 19.2 °F 40% 30.08 in 10.0 mi West 13.8 mph 19.6 mph N/A   Clear
3:55 PM 41.9 °F 34.3 °F 19.2 °F 40% 30.09 in 10.0 mi West 15.0 mph 19.6 mph N/A   Clear
4:15 PM 41.4 °F 34.0 °F 19.2 °F 41% 30.09 in 10.0 mi West 13.8 mph 17.3 mph N/A   Clear
4:35 PM 40.6 °F 34.8 °F 19.6 °F 43% 30.08 in 10.0 mi WSW 9.2 mph 17.3 mph N/A   Clear
4:55 PM 39.4 °F 32.7 °F 20.1 °F 46% 30.09 in 10.0 mi WSW 10.4 mph 16.1 mph N/A   Clear
5:15 PM 38.3 °F 32.5 °F 20.3 °F 48% 30.10 in 10.0 mi WSW 8.1 mph - N/A   Clear
5:35 PM 36.7 °F 29.4 °F 20.8 °F 53% 30.10 in 10.0 mi WSW 10.4 mph - N/A   Clear
5:55 PM 37.4 °F 30.8 °F 21.2 °F 52% 30.11 in 10.0 mi WSW 9.2 mph - N/A   Clear
6:15 PM 35.4 °F 29.7 °F 21.6 °F 57% 30.11 in 10.0 mi SW 6.9 mph - N/A   Clear
6:35 PM 34.7 °F 28.1 °F 21.9 °F 60% 30.12 in 10.0 mi SW 8.1 mph - N/A   Clear
6:55 PM 34.5 °F 27.9 °F 22.1 °F 61% 30.12 in 10.0 mi WSW 8.1 mph - N/A   Clear
7:15 PM 34.3 °F 27.7 °F 22.1 °F 61% 30.12 in 10.0 mi WSW 8.1 mph - N/A   Clear
7:35 PM 34.3 °F 27.0 °F 21.9 °F 60% 30.13 in 10.0 mi WSW 9.2 mph - N/A   Clear
7:55 PM 35.4 °F 27.8 °F 21.9 °F 58% 30.13 in 10.0 mi WSW 10.4 mph - N/A   Clear
8:15 PM 36.1 °F 28.7 °F 21.9 °F 56% 30.13 in 10.0 mi West 10.4 mph - N/A   Clear
8:35 PM 31.6 °F 25.1 °F 22.1 °F 68% 30.15 in 10.0 mi NW 6.9 mph - N/A   Clear
8:55 PM 31.1 °F 25.4 °F 21.6 °F 68% 30.15 in 10.0 mi NW 5.8 mph - N/A   Clear
9:15 PM 30.7 °F 26.0 °F 21.6 °F 69% 30.15 in 10.0 mi WNW 4.6 mph - N/A   Clear
9:35 PM 30.0 °F 25.2 °F 21.6 °F 71% 30.16 in 10.0 mi NNW 4.6 mph - N/A   Clear
9:55 PM 29.5 °F 23.4 °F 21.0 °F 71% 30.18 in 10.0 mi WNW 5.8 mph - N/A   Clear
10:15 PM 29.1 °F 23.0 °F 21.6 °F 73% 30.19 in 10.0 mi West 5.8 mph - N/A   Clear
10:35 PM 29.7 °F 22.8 °F 21.9 °F 73% 30.20 in 10.0 mi WNW 6.9 mph - N/A   Clear
10:55 PM 32.0 °F 24.2 °F 23.5 °F 71% 30.21 in 10.0 mi WNW 9.2 mph - N/A   Clear
11:15 PM 31.6 °F 25.1 °F 23.2 °F 71% 30.22 in 10.0 mi NW 6.9 mph - N/A   Clear
11:35 PM 32.0 °F 23.6 °F 23.7 °F 71% 30.22 in 10.0 mi NW 10.4 mph - N/A   Clear
11:55 PM 31.5 °F 22.9 °F 23.5 °F 73% 30.22 in 10.0 mi NNW 10.4 mph - N/A   Clear